TimeEDT,TemperatureF,Dew PointF,Humidity,Sea Level PressureIn,VisibilityMPH,Wind Direction,Wind SpeedMPH,Gust SpeedMPH,PrecipitationIn,Events,Conditions,WindDirDegrees,DateUTC
12:16 AM,62.6,62.6,100,29.64,9.0,South,6.9,-,N/A,,Mostly Cloudy,180,2012-10-16 04:16:00
12:53 AM,63.0,62.1,97,29.63,9.0,SSW,10.4,-,N/A,,Overcast,200,2012-10-16 04:53:00
1:13 AM,62.6,62.6,100,29.62,10.0,SSW,9.2,-,0.00,,Overcast,210,2012-10-16 05:13:00
1:53 AM,63.0,63.0,100,29.62,8.0,WSW,8.1,-,0.00,Rain,Light Rain,240,2012-10-16 05:53:00
2:11 AM,62.6,62.6,100,29.61,10.0,WSW,5.8,-,0.00,,Overcast,250,2012-10-16 06:11:00
2:53 AM,63.0,62.1,97,29.60,10.0,WSW,10.4,-,0.00,,Overcast,250,2012-10-16 06:53:00
3:53 AM,61.0,61.0,100,29.58,7.0,WSW,9.2,-,0.02,Rain,Light Rain,250,2012-10-16 07:53:00
4:53 AM,61.0,60.1,97,29.57,10.0,WSW,11.5,-,0.00,,Overcast,240,2012-10-16 08:53:00
5:02 AM,60.8,60.8,100,29.57,8.0,WSW,12.7,-,0.00,Rain,Light Rain,250,2012-10-16 09:02:00
5:28 AM,60.8,59.0,94,29.56,10.0,West,11.5,-,0.01,Rain,Light Rain,260,2012-10-16 09:28:00
5:53 AM,60.1,60.1,100,29.55,6.0,WNW,8.1,-,0.05,Rain,Light Rain,290,2012-10-16 09:53:00
6:53 AM,60.1,59.0,96,29.55,10.0,WNW,9.2,-,0.03,Rain,Light Rain,290,2012-10-16 10:53:00
7:02 AM,60.8,59.0,94,29.56,10.0,WNW,10.4,-,0.00,,Mostly Cloudy,290,2012-10-16 11:02:00
8:48 AM,55.4,48.2,77,29.63,10.0,NW,16.1,23.0,N/A,,Overcast,310,2012-10-16 12:48:00
8:53 AM,55.0,46.9,74,29.64,10.0,NW,15.0,-,N/A,,Overcast,310,2012-10-16 12:53:00
9:53 AM,57.9,46.9,67,29.62,10.0,NW,12.7,21.9,N/A,,Scattered Clouds,320,2012-10-16 13:53:00
10:53 AM,57.9,46.0,65,29.65,10.0,WNW,15.0,24.2,N/A,,Clear,290,2012-10-16 14:53:00
11:53 AM,57.9,44.1,60,29.65,10.0,WNW,13.8,19.6,N/A,,Clear,300,2012-10-16 15:53:00
12:53 PM,57.9,42.1,56,29.63,10.0,West,13.8,20.7,N/A,,Clear,270,2012-10-16 16:53:00
1:53 PM,57.9,41.0,53,29.64,10.0,West,13.8,23.0,N/A,,Clear,280,2012-10-16 17:53:00
2:53 PM,57.0,39.0,51,29.66,10.0,NW,18.4,24.2,N/A,,Clear,310,2012-10-16 18:53:00
3:53 PM,57.0,39.0,51,29.69,10.0,WNW,12.7,24.2,N/A,,Clear,300,2012-10-16 19:53:00
4:53 PM,55.9,39.0,53,29.71,10.0,NW,9.2,-,N/A,,Clear,310,2012-10-16 20:53:00
5:53 PM,53.1,37.9,57,29.75,10.0,WNW,4.6,-,N/A,,Clear,300,2012-10-16 21:53:00
6:53 PM,50.0,39.0,66,29.78,10.0,WNW,4.6,-,N/A,,Clear,290,2012-10-16 22:53:00
7:53 PM,51.1,37.9,61,29.80,10.0,WNW,9.2,-,N/A,,Clear,300,2012-10-16 23:53:00
8:53 PM,52.0,37.9,59,29.82,10.0,NW,8.1,-,N/A,,Clear,320,2012-10-17 00:53:00
9:53 PM,52.0,37.0,57,29.83,10.0,NW,12.7,-,N/A,,Clear,320,2012-10-17 01:53:00
10:53 PM,52.0,37.0,57,29.84,10.0,NW,12.7,-,N/A,,Clear,310,2012-10-17 02:53:00
11:53 PM,52.0,37.0,57,29.84,10.0,NW,10.4,-,N/A,,Clear,320,2012-10-17 03:53:00